User: anonymous   Login
Location: Antin
(43.3330°N, 0.2804°E)
Time: 03:46:38
(UTC+00:00)
Language:

CZ-4 R/B - Orbit

View from above orbital plane
View from above orbital plane
View from above satellite
View from above satellite

Ground track
Ground track

The orbit data is extracted from the following two-line orbital elements,

1 29507U 06046C   22026.65926038  .00000241  00000-0  23239-4 0  9990
2 29507  97.7492  57.2844 0045534 344.5521  15.4310 15.01301124833644
Epoch (UTC): 26 January 2022 15:49:20
Eccentricity: 0.0045534
inclination: 97.7492°
perigee height: 531 km
apogee height: 594 km
right ascension of ascending node: 57.2844°
argument of perigee: 344.5521°
revolutions per day: 15.01301124
mean anomaly at epoch: 15.4310°
orbit number at epoch: 83364

The dashed part of the orbit path shows where the satellite is in the earth's shadow,  

DLR